Location: Newark
(41.0400°S, 62.7845°W)
Time: 19:34:17
(UTC+00:00)

Courier 1B Rocket - Pass Details

Date: 06 December 2021
Orbit: 920 x 1202 km, 28.2° (Epoch: 21 January)

Event Time Altitude Azimuth Distance (km) Brightness Sun altitude
Rises 12:12:13 0° 335° (NNW) 3,831 7.9 38.8°
Reaches altitude 10° 12:16:35 10° 360° (N) 2,948 7.7 39.6°
Maximum altitude 12:19:51 13° 27° (NNE) 2,740 7.9 40.2°
Drops below altitude 10° 12:23:12 10° 53° (NE) 3,043 8.5 40.8°
Sets 12:27:50 0° 77° (ENE) 4,057 9.1 41.7°
